This is the latest recevied weather packets stored in our database for station/object SV9TNF-56. If no packets are shown the sender has not sent any weather packets the latest 10 day(s).
| Time | Temp. | Humidity | Pressure | Rain* | Wind** | Luminosity | Snow |
|---|---|---|---|---|---|---|---|
| 1788661980 | 23.89° C | 73% | 1012.9 hPa | 0 mm | 13.86 m/s, 284° | - | - |
| 1788661680 | 23.89° C | 72% | 1012.9 hPa | 0 mm | 16.99 m/s, 252° | - | - |
| 1788661379 | 23.89° C | 71% | 1012.9 hPa | 0 mm | 12.07 m/s, 287° | - | - |
| 1788661079 | 23.89° C | 70% | 1012.9 hPa | 0 mm | 11.18 m/s, 296° | - | - |
| 1788660779 | 23.89° C | 68% | 1012.9 hPa | 0 mm | 14.75 m/s, 276° | - | - |
| 1788660479 | 23.33° C | 68% | 1012.9 hPa | 0 mm | 8.49 m/s, 282° | - | - |
| 1788660179 | 23.33° C | 67% | 1012.9 hPa | 0 mm | 12.07 m/s, 282° | - | - |
| 1788659879 | 23.89° C | 67% | 1012.9 hPa | 0 mm | 9.83 m/s, 258° | - | - |
| 1788659579 | 23.89° C | 67% | 1012.9 hPa | 0 mm | 8.94 m/s, 288° | - | - |
| 1788659279 | 23.89° C | 67% | 1012.9 hPa | 0 mm | 9.83 m/s, 282° | - | - |
| 1788658979 | 23.89° C | 67% | 1013.2 hPa | 0 mm | 14.31 m/s, 270° | - | - |
| 1788658678 | 23.89° C | 67% | 1013.2 hPa | 0 mm | 12.07 m/s, 238° | - | - |
| 1788658378 | 23.89° C | 65% | 1012.9 hPa | 0 mm | 8.94 m/s, 288° | - | - |
| 1788658078 | 23.89° C | 65% | 1013.2 hPa | 0 mm | 8.94 m/s, 270° | - | - |
| 1788657778 | 23.33° C | 64% | 1013.2 hPa | 0 mm | 12.96 m/s, 258° | - | - |
| 1788657478 | 23.33° C | 65% | 1013.2 hPa | 0 mm | 7.15 m/s, 258° | - | - |
| 1788657178 | 23.33° C | 68% | 1013.2 hPa | 0 mm | 13.86 m/s, 282° | - | - |
| 1788656878 | 23.89° C | 67% | 1013.2 hPa | 0 mm | 13.41 m/s, 244° | - | - |
| 1788656578 | 23.33° C | 68% | 1013.2 hPa | 0 mm | 11.18 m/s, 270° | - | - |
| 1788656277 | 23.33° C | 68% | 1013.6 hPa | 0 mm | 10.28 m/s, 306° | - | - |
| 1788655978 | 23.33° C | 70% | 1013.2 hPa | 0 mm | 14.75 m/s, 279° | - | - |
| 1788655678 | 23.33° C | 71% | 1013.2 hPa | 0 mm | 8.94 m/s, 207° | - | - |
| 1788655377 | 23.33° C | 71% | 1013.2 hPa | 0 mm | 14.75 m/s, 278° | - | - |
| 1788655077 | 23.33° C | 73% | 1013.2 hPa | 0 mm | 12.52 m/s, 288° | - | - |
| 1788654777 | 23.33° C | 74% | 1013.6 hPa | 0 mm | 13.86 m/s, 276° | - | - |
* Rain latest hour (hover to see other rain measurements)
** Current wind speed in m/s (hover to see current wind gust speed)